Find KUIPER-00468

NORAD ID: 68873 Int'l Des: 2026-095K Owner: KUIP Country: US Constellation: amazon-leo operational
LEOCIRCULAR

Current View

Loading 3D Globe...

About KUIPER-00468

KUIPER-00468 (NORAD 68873) is a amazon-leo constellation satellite launched Apr 28, 2026 by KUIP of US. It operates in LEO, CIRCULAR orbit with a mass of 490.00 kg.

About KUIPER-00468

Description loading...

Upcoming Passes

Passes for default location (London). Set your location on the main map for personalized predictions.

Altitude History

Loading altitude history...

Two-Line Element Set

1 68873U 26095K 26166.51840852 .00020575 00000-0 55671-3 0 9994
2 68873 51.8819 250.3801 0003876 284.5707 75.4850 15.37661158 7472
Epoch: Jun 15, 2026 • Age: 18 hours

Current Status

Altitude 456.7 km
Velocity 7.64 km/s
Sub-Earth Point 29.99°N, 42.37°E
Launch Date Apr 28, 2026
Age 0.1 years
Type internet

Technical Details

Classification Payload
Mass 490.00 kg
Dry Mass 490.00 kg
Total Mass 490.00 kg
Length 1.80 m
Diameter 0.70 m
Span 5.00 m
Shape Box + 2 pan
Manufacturer KUIP
Bus Type Kuiper
Phase Status In Orbit
Owner/State KUIP/US

Most Searched